User: anonymous   Login
Location: Unspecified
(0.0000°N, 0.0000°E)
Time: 02:43:03
(UTC+00:00)
Language:

Kosmos-1553 - Orbit

View from above orbital plane
View from above orbital plane
View from above satellite
View from above satellite

Ground track
Ground track

The orbit data is extracted from the following two-line orbital elements,

1 14973U 84046A   19054.48116465  .00000021  00000-0  56376-5 0  9995
2 14973  82.9329  73.8764 0032609 165.2657 302.2011 13.75331772744852
Epoch (UTC): 23 February 2019 11:32:52
Eccentricity: 0.0032609
inclination: 82.9329°
perigee height: 956 km
apogee height: 1004 km
right ascension of ascending node: 73.8764°
argument of perigee: 165.2657°
revolutions per day: 13.75331772
mean anomaly at epoch: 302.2011°
orbit number at epoch: 74485

The dashed part of the orbit path shows where the satellite is in the earth's shadow,  

DLR